Flag for United Kingdom Weather past 2 weeks in Canterbury, England, United Kingdom

Now
63 °F

Duststorm.


Feels Like: 63 °F
Forecast: 59 / 70 °F
Wind: 7 mph from Northeast

Location: Manston

Current Time: Sep 19, 2014 at 11:01:27 AM

Latest Report: Sep 19, 2014 at 10:00 AM


Visibility: 0 mi

Pressure: 29.87 "Hg

Humidity: 99%

Dew point: 63 °F

Location of CanterburyLocation

Historic Weather in Canterbury — Graph

°F

Canterbury temperature yesterday

Maximum temperature yesterday: 72 °F (at 3:00 PM)
Minimum temperature yesterday: 62 °F (at 1:00 AM)
Average temperature yesterday: 66 °F

Past Weeks' High & Low Weather Summary

 TemperatureHumidityPressure
High72 °F (Sep 18, 3:00 PM)99% (Sep 7, 9:00 AM)30.32 "Hg (Sep 7, 9:00 AM)
Low52 °F (Sep 10, 5:00 AM)52% (Sep 8, 12:00 PM)29.79 "Hg (Sep 18, 5:00 AM)
Average62 °F83%30.06 "Hg
* Reported Sep 4 9:00 AM — Sep 19 9:00 AM, Canterbury, Weather by CustomWeather, © 2014

Note: Actual official high and low records may vary slightly from our data, if they occured in-between our weather recording intervals... More about our weather records

Advertising

Canterbury weather history for previous 24 hours

 ConditionsComfort  
Time TempWeatherWind HumidityBarometerVisibility
9:00 AM
Sep 19
63 °FMild.3 mph99%29.86 "Hg1 mi
8:00 AM62 °FDuststorm.9 mph99%29.84 "Hg0 mi
7:00 AM62 °FDuststorm.10 mph99%29.84 "Hg0 mi
6:00 AM62 °FDuststorm.10 mph99%29.83 "Hg0 mi
5:00 AM62 °FRain. Overcast.5 mph99%29.82 "Hg0 mi
4:00 AM62 °FCool.3 mph99%29.83 "Hg1 mi
3:00 AM62 °FDuststorm.3 mph98%29.82 "Hg0 mi
2:00 AM60 °FDuststorm.3 mph98%29.82 "Hg0 mi
1:00 AM61 °FDuststorm.1 mph97%29.82 "Hg0 mi
12:00 AM63 °FFog.6 mph97%29.83 "Hg1 mi
11:00 PM
Sep 18
63 °FFog.5 mph97%29.83 "Hg1 mi
10:00 PM63 °FFog.5 mph97%29.82 "Hg1 mi
9:00 PM63 °FFog.6 mph97%29.82 "Hg1 mi
8:00 PM63 °FFog.5 mph96%29.82 "Hg1 mi
7:00 PM64 °FSmoke.5 mph92%29.81 "Hg2 mi
4:00 PM70 °FSmoke.9 mph79%29.79 "Hg3 mi
3:00 PM72 °FSmoke.8 mph76%29.79 "Hg4 mi
2:00 PM71 °FSmoke.9 mph76%29.80 "Hg4 mi
1:00 PM71 °FSmoke.9 mph76%29.80 "Hg5 mi
12:00 PM71 °FSmoke.9 mph77%29.80 "Hg4 mi
11:00 AM71 °FSmoke.7 mph75%29.80 "Hg4 mi
Weather by CustomWeather, © 2014

See weather overviewHow to use our weather pages